Temp
23 20 19 20 19 21 21 20 20 21 21 20 18 18 18 19 20 17 17 17 16 16 15 14 14 14 13 13 13 12 12 11 11 11 11 11 11 11 11 11 11 12 11 12
21 19 20 21 21 21 20 20 20 21 21 20 19 19 18 18 19 18 17 17 17 16 15 15 14 14 13 13 13 13 12 12 11 11 11 11 11 11 11 12 11 11 12 11
19 20 22 22 21 21 20 20 20 21 22 21 20 19 20 19 19 18 17 18 17 16 15 15 14 14 13 13 13 13 13 12 12 11 11 12 11 11 11 12 11 11 11 11
20 22 21 21 21 21 19 21 22 22 19 18 20 16 19 18 17 16 16 17 17 16 16 15 15 14 14 13 13 14 13 13 12 12 12 12 12 12 11 12 12 11 12 12
21 21 20 21 21 22 21 21 22 21 19 19 20 14 18 17 17 15 15 16 17 16 16 15 15 15 14 14 13 14 13 13 13 13 13 12 12 12 11 13 12 12 11 11
22 23 22 22 22 23 23 23 20 17 16 15 18 17 16 17 19 16 15 16 17 16 16 16 15 15 14 14 14 13 13 13 13 13 13 12 12 12 12 12 12 12 12 12
21 22 23 24 22 22 21 17 16 14 13 14 19 17 19 18 19 18 16 16 17 17 16 16 15 15 15 14 14 14 13 13 13 13 13 13 12 12 12 12 12 12 12 13
19 19 22 23 22 21 19 17 15 16 14 18 18 18 18 19 21 20 18 17 17 17 17 16 15 15 15 14 14 14 14 13 13 13 13 13 13 12 12 12 12 12 12 12
18 20 22 23 23 22 21 18 18 18 17 18 17 19 19 19 18 18 16 16 17 17 17 16 16 15 15 15 15 14 14 14 13 13 13 13 13 13 13 13 12 12 13 13
19 19 21 23 22 22 21 21 19 15 17 17 17 19 16 19 17 16 15 16 16 17 17 16 16 15 15 15 15 14 14 15 14 14 14 13 13 13 13 13 13 13 13 13
21 18 19 20 20 20 20 17 16 16 16 15 14 16 16 18 18 16 16 16 17 17 17 17 16 16 15 15 15 15 15 14 14 14 14 14 14 13 13 13 13 13 13 13
19 18 18 19 16 17 18 17 15 14 17 16 16 15 18 18 18 18 17 16 17 18 17 17 16 16 16 15 15 15 15 14 14 14 14 14 14 14 13 14 13 13 12 12
20 16 14 15 16 17 19 17 16 15 14 15 15 16 17 18 18 19 17 16 17 18 18 17 17 16 16 16 15 15 15 15 14 14 14 14 14 14 14 14 14 13 12 12
23 16 20 19 18 16 17 19 18 17 15 17 17 19 17 17 18 18 18 17 17 18 18 17 17 16 16 16 16 15 15 15 14 14 14 14 14 14 13 13 13 13 13 13
21 19 18 21 19 18 19 19 19 18 18 18 18 17 16 18 19 20 20 18 17 17 18 17 17 17 16 16 16 16 16 15 15 14 14 14 14 13 13 12 13 13 13 13
17 16 16 16 19 18 18 18 18 19 20 18 18 17 16 18 20 23 20 18 17 17 18 18 18 17 17 16 16 16 16 16 15 15 15 15 14 13 13 13 13 13 13 13
16 18 15 14 16 15 14 16 17 19 19 19 18 19 18 17 18 20 20 19 18 18 18 18 18 18 17 17 16 16 16 16 16 16 15 15 15 14 13 13 13 13 13 13
13 15 14 13 15 14 16 16 18 18 18 16 17 18 18 20 20 21 23 22 19 19 18 19 18 18 18 17 17 16 16 16 16 16 16 16 15 15 14 14 14 14 14 14
13 12 12 13 11 16 16 16 16 16 17 17 17 18 19 21 22 19 22 23 24 20 21 21 20 19 18 18 17 17 17 17 16 16 16 16 16 15 15 15 15 15 15 15
13 11 12 9 13 13 15 17 18 17 16 18 18 17 19 19 19 20 23 23 21 22 22 21 20 19 19 18 18 17 17 17 17 17 17 17 16 16 16 16 16 16 16 16
11 12 11 9 9 12 14 15 18 15 17 19 20 19 18 16 20 23 25 25 23 24 22 21 21 20 20 19 18 18 17 17 17 17 17 17 17 16 17 16 16 16 16 16
12 10 10 9 10 14 15 15 16 16 18 19 18 19 20 20 21 21 24 25 25 23 22 20 21 21 20 19 19 18 18 18 17 17 17 17 17 17 17 17 16 16 16 16
13 12 11 12 12 14 15 18 20 20 21 18 19 21 20 21 22 21 20 23 24 24 22 21 21 21 20 20 19 19 18 18 18 17 17 17 17 17 17 17 17 16 16 16
15 13 13 14 14 14 17 17 19 20 21 20 20 21 21 22 22 22 22 24 23 23 21 23 21 21 20 20 20 20 19 19 18 18 17 17 17 17 17 17 17 17 17 17
14 14 14 15 17 16 15 16 19 19 19 18 17 19 20 22 22 21 22 22 24 25 24 23 23 22 22 22 21 20 19 19 19 18 18 18 18 18 17 17 17 17 18 18
13 15 15 14 14 15 15 17 18 18 18 18 18 18 20 20 21 21 20 22 23 24 25 22 22 23 23 22 22 21 20 20 19 19 18 18 18 18 18 18 18 18 18 19
Height
1496 1501 1509 1506 1504 1505 1507 1510 1511 1503 1498 1502 1506 1505 1506 1505 1508 1509 1511 1513 1517 1519 1520 1520 1522 1523 1523 1521 1518 1513 1509 1506 1503 1499 1496 1493 1491 1488 1487 1487 1486 1486 1485 1484
1497 1503 1497 1497 1499 1502 1504 1509 1507 1497 1492 1499 1503 1504 1502 1502 1500 1502 1507 1511 1514 1517 1519 1519 1522 1523 1523 1522 1519 1516 1512 1509 1506 1502 1498 1496 1493 1492 1491 1491 1490 1489 1490 1490
1498 1495 1492 1496 1499 1503 1502 1505 1503 1503 1496 1497 1499 1508 1501 1499 1501 1504 1507 1509 1512 1515 1516 1518 1521 1523 1523 1522 1520 1517 1514 1512 1509 1505 1501 1498 1497 1496 1496 1495 1494 1494 1493 1497
1490 1485 1490 1494 1497 1496 1507 1493 1492 1496 1506 1523 1498 1532 1500 1496 1500 1502 1505 1507 1509 1512 1515 1516 1520 1522 1523 1523 1522 1518 1517 1514 1512 1509 1506 1503 1501 1500 1500 1499 1500 1499 1499 1503
1480 1484 1489 1491 1489 1486 1495 1487 1489 1490 1502 1506 1502 1526 1503 1496 1503 1502 1502 1504 1507 1509 1512 1514 1519 1522 1523 1523 1523 1520 1519 1517 1515 1512 1509 1508 1506 1505 1505 1504 1505 1503 1503 1496
1475 1475 1477 1479 1476 1478 1477 1485 1492 1499 1510 1530 1507 1512 1510 1503 1490 1496 1499 1501 1504 1508 1512 1513 1518 1521 1523 1523 1524 1523 1521 1519 1517 1515 1513 1512 1511 1511 1510 1511 1510 1510 1509 1510
1475 1473 1469 1472 1478 1473 1480 1498 1526 1537 1541 1537 1497 1509 1494 1482 1480 1482 1490 1496 1501 1506 1509 1512 1516 1519 1522 1523 1524 1524 1522 1521 1520 1518 1516 1515 1514 1514 1514 1515 1515 1514 1513 1512
1486 1491 1469 1465 1471 1477 1482 1494 1523 1534 1541 1514 1497 1509 1493 1471 1470 1475 1482 1489 1498 1504 1507 1510 1514 1518 1520 1523 1524 1524 1523 1522 1521 1520 1519 1519 1519 1518 1517 1518 1520 1520 1519 1518
1483 1477 1460 1460 1461 1463 1479 1492 1482 1502 1504 1514 1507 1489 1479 1473 1473 1479 1485 1491 1495 1500 1504 1508 1513 1516 1519 1522 1523 1524 1524 1523 1522 1522 1521 1521 1521 1522 1521 1522 1523 1523 1523 1524
1461 1477 1460 1456 1459 1460 1461 1466 1493 1506 1522 1525 1510 1495 1501 1480 1479 1482 1486 1489 1493 1498 1502 1507 1510 1515 1518 1521 1523 1524 1525 1524 1523 1523 1523 1523 1523 1524 1524 1525 1526 1527 1527 1528
1447 1463 1467 1458 1462 1469 1469 1480 1486 1494 1501 1523 1532 1509 1476 1471 1472 1476 1480 1485 1487 1494 1499 1504 1508 1513 1517 1520 1522 1523 1525 1524 1524 1524 1524 1524 1525 1526 1527 1528 1529 1530 1531 1532
1439 1455 1468 1462 1457 1457 1460 1469 1479 1504 1502 1503 1508 1506 1462 1461 1464 1467 1474 1480 1486 1490 1496 1502 1506 1511 1515 1518 1521 1522 1524 1524 1524 1525 1525 1525 1526 1527 1528 1530 1531 1533 1535 1537
1431 1453 1480 1476 1466 1457 1458 1466 1470 1477 1500 1508 1512 1502 1466 1462 1465 1470 1474 1478 1484 1488 1495 1501 1505 1509 1513 1517 1519 1521 1523 1524 1524 1525 1526 1526 1527 1527 1529 1531 1533 1535 1538 1540
1412 1435 1436 1453 1453 1456 1463 1459 1464 1478 1495 1490 1491 1482 1474 1463 1465 1467 1472 1476 1483 1483 1490 1496 1503 1506 1510 1515 1517 1519 1522 1523 1524 1526 1527 1527 1527 1528 1530 1532 1535 1537 1539 1541
1415 1424 1426 1425 1432 1441 1447 1451 1457 1466 1466 1479 1474 1483 1469 1455 1455 1459 1465 1475 1482 1486 1487 1492 1497 1503 1508 1512 1516 1518 1521 1522 1524 1525 1527 1528 1528 1529 1531 1533 1536 1538 1540 1542
1409 1424 1422 1440 1430 1440 1449 1450 1453 1452 1457 1465 1469 1477 1461 1452 1455 1460 1463 1467 1474 1478 1481 1486 1492 1499 1503 1508 1513 1516 1518 1521 1523 1524 1526 1528 1529 1530 1532 1534 1536 1538 1540 1542
1402 1411 1426 1449 1439 1450 1461 1445 1452 1454 1454 1457 1469 1461 1456 1457 1454 1454 1453 1458 1462 1468 1476 1479 1485 1492 1498 1503 1509 1512 1516 1519 1522 1524 1526 1528 1529 1531 1533 1535 1537 1539 1542 1544
1411 1409 1425 1447 1442 1459 1433 1433 1437 1451 1451 1453 1452 1451 1451 1448 1446 1449 1449 1449 1454 1460 1468 1472 1478 1486 1493 1499 1504 1509 1513 1516 1520 1523 1525 1527 1530 1532 1534 1536 1539 1541 1543 1546
1401 1402 1430 1441 1452 1434 1431 1431 1439 1446 1446 1441 1442 1444 1444 1441 1448 1452 1444 1445 1446 1453 1460 1464 1469 1478 1487 1493 1499 1504 1508 1513 1517 1520 1523 1526 1529 1531 1534 1537 1539 1541 1544 1546
1397 1401 1414 1439 1443 1447 1427 1419 1423 1431 1446 1428 1434 1436 1437 1439 1449 1438 1439 1441 1446 1448 1453 1459 1467 1475 1482 1487 1494 1499 1502 1507 1512 1517 1521 1525 1528 1531 1533 1536 1538 1541 1544 1547
1411 1413 1425 1437 1445 1435 1419 1416 1422 1448 1431 1422 1424 1426 1433 1440 1437 1433 1433 1436 1439 1441 1446 1454 1460 1465 1468 1480 1487 1492 1496 1499 1505 1513 1518 1522 1525 1528 1532 1535 1539 1542 1544 1547
1403 1419 1426 1435 1440 1434 1414 1417 1421 1411 1410 1414 1417 1418 1423 1425 1432 1434 1431 1431 1431 1435 1444 1450 1453 1457 1465 1474 1481 1486 1487 1493 1501 1507 1513 1517 1521 1525 1529 1532 1536 1540 1542 1544
1399 1396 1409 1414 1417 1400 1398 1395 1396 1400 1402 1407 1411 1411 1416 1417 1422 1431 1433 1431 1428 1431 1436 1439 1445 1452 1459 1466 1472 1476 1479 1488 1495 1501 1507 1512 1517 1521 1525 1528 1532 1535 1538 1540
1381 1381 1394 1401 1397 1395 1394 1394 1396 1395 1399 1403 1406 1406 1407 1409 1417 1425 1421 1419 1419 1421 1428 1432 1439 1446 1452 1458 1464 1465 1474 1482 1488 1494 1500 1506 1511 1516 1520 1524 1527 1529 1531 1534
1370 1377 1383 1388 1382 1386 1388 1390 1391 1395 1399 1403 1407 1410 1410 1413 1415 1418 1418 1416 1416 1417 1422 1427 1432 1439 1443 1448 1453 1459 1467 1473 1480 1487 1494 1500 1505 1509 1513 1517 1520 1522 1525 1527
1362 1367 1381 1387 1377 1380 1385 1387 1391 1396 1398 1403 1405 1407 1409 1408 1411 1412 1414 1412 1417 1416 1418 1421 1425 1429 1435 1440 1444 1451 1458 1465 1472 1480 1487 1493 1498 1503 1506 1509 1512 1515 1518 1519
Wind_Speed
5 3 5 8 8 5 6 6 9 4 6 7 10 7 13 22 20 21 25 24 19 12 8 11 6 4 7 12 10 14 17 16 15 12 13 11 10 11 11 12 13 11 10 6
0 7 8 8 7 8 7 9 12 6 8 8 8 12 9 13 20 28 29 26 22 17 11 11 8 3 6 9 9 12 16 16 18 15 13 13 13 14 14 14 15 14 14 17
8 7 8 10 9 9 7 8 11 6 1 6 4 6 5 8 4 20 28 27 22 18 15 13 11 4 5 5 12 8 10 15 16 19 19 15 14 16 16 17 18 18 17 23
8 12 12 10 12 10 9 8 14 6 7 6 4 4 5 6 8 12 23 27 25 21 15 15 13 6 5 5 8 10 11 15 15 13 16 19 17 19 19 19 18 20 13 18
15 8 8 12 17 13 10 7 8 6 7 4 3 3 6 7 5 9 18 30 28 24 18 19 13 8 7 7 5 12 13 16 14 12 11 17 22 21 21 18 18 19 21 13
13 20 9 15 10 14 8 4 5 5 3 0 7 5 4 6 15 7 17 27 31 27 20 18 16 10 10 9 6 8 14 12 11 12 13 13 16 18 18 20 20 20 21 18
7 16 10 8 7 5 5 6 2 3 4 6 1 2 10 11 9 17 22 29 34 29 23 23 21 14 13 11 9 6 6 7 9 10 10 11 12 12 15 17 19 21 20 18
10 12 13 6 9 8 7 9 6 7 3 9 6 4 7 5 21 28 36 39 36 31 26 26 21 16 16 14 8 8 5 5 8 10 9 8 9 8 11 15 21 24 25 24
8 14 8 5 7 14 5 4 9 6 3 1 4 6 6 2 8 17 23 32 38 34 30 28 19 18 15 17 10 12 8 5 8 8 7 6 3 8 11 14 17 19 20 21
9 11 11 11 2 4 11 6 3 2 5 5 4 4 6 3 9 10 16 28 35 35 32 27 21 21 16 15 12 16 8 7 9 9 9 10 9 9 11 12 16 19 19 18
14 7 5 4 6 9 1 3 5 4 5 3 3 6 7 11 13 18 22 31 42 39 36 29 25 23 19 17 13 16 13 10 10 10 9 10 11 12 12 12 17 19 19 19
11 8 12 4 5 4 2 8 7 4 4 2 4 7 6 8 9 23 28 32 41 41 37 30 28 25 22 21 17 20 16 12 11 8 7 7 10 12 13 14 17 19 19 20
11 6 3 5 5 4 3 4 6 9 3 6 0 5 5 7 7 16 22 28 39 41 37 33 32 28 26 23 21 20 16 16 15 11 8 7 8 11 15 15 16 18 18 20
26 8 19 15 11 6 4 10 15 9 5 4 7 9 8 7 7 10 22 30 36 44 41 38 35 31 28 24 24 21 18 18 19 15 10 9 10 12 15 17 18 17 17 19
9 14 7 18 13 15 9 14 16 18 18 9 9 7 10 11 16 22 24 29 29 34 42 41 39 35 31 27 26 23 19 21 20 17 13 12 13 16 16 17 18 19 18 17
4 6 5 3 11 10 5 9 14 20 18 14 10 10 9 22 10 6 20 33 34 39 45 44 42 39 34 31 29 26 23 21 22 18 15 15 16 19 18 17 18 19 18 17
7 7 2 6 14 10 2 9 13 18 11 16 12 12 7 9 8 21 25 38 42 44 46 48 47 44 39 35 32 30 27 23 21 19 18 17 18 19 19 18 18 18 18 17
5 7 5 5 7 7 5 7 14 14 5 6 4 9 9 23 29 32 39 42 43 47 49 50 49 48 43 37 34 32 31 28 24 21 21 19 19 19 20 19 18 18 17 17
1 6 4 7 3 1 3 6 9 9 12 16 12 11 7 9 21 20 37 38 42 50 50 49 49 50 47 41 37 36 36 34 30 26 23 22 21 21 20 20 19 18 18 17
6 7 5 4 7 9 6 5 9 7 9 6 12 8 4 10 12 10 36 38 43 44 46 49 48 50 49 46 42 39 40 41 37 31 25 23 22 22 22 21 20 19 18 16
3 3 5 3 3 4 4 9 17 10 6 14 16 9 5 5 18 25 35 35 40 45 46 47 46 51 55 50 47 45 44 45 41 35 29 26 25 24 23 23 21 19 17 16
6 6 4 4 3 5 12 7 10 11 10 10 8 10 8 5 11 14 12 32 39 47 44 46 50 51 54 53 51 50 51 47 43 40 35 31 29 28 27 26 25 23 20 18
5 7 7 7 6 9 31 16 30 22 16 21 16 9 8 9 20 22 22 25 40 45 51 53 53 51 53 54 55 54 53 50 47 45 41 37 33 32 30 30 30 28 26 25
4 5 5 5 7 10 30 30 22 22 22 21 14 9 6 16 28 26 19 21 26 41 49 54 53 51 54 55 55 55 54 53 51 50 46 42 38 37 37 35 32 31 30 30
6 8 7 6 3 5 8 21 19 24 23 23 13 10 12 16 20 11 8 18 32 31 40 46 49 51 53 55 54 56 57 55 53 52 50 45 42 38 41 40 39 38 33 28
1 9 7 6 6 6 7 15 19 22 22 20 15 16 16 15 13 3 6 7 14 29 32 41 47 51 53 54 52 56 59 57 55 53 51 48 45 44 40 42 42 42 38 33
Wind_Direction
219 155 215 233 226 213 230 247 263 268 229 148 213 216 198 200 192 174 171 168 169 166 138 119 132 61 38 35 48 47 44 53 46 55 62 70 81 80 80 83 87 89 89 140
277 226 218 229 241 240 246 258 271 307 227 158 208 241 195 194 204 182 173 173 171 162 148 134 157 88 67 40 40 54 52 63 62 59 61 69 77 82 78 78 90 99 112 128
196 217 211 231 252 253 256 243 262 225 99 317 135 293 182 214 171 178 181 182 174 176 155 153 165 117 104 61 33 65 54 56 67 57 60 71 77 84 80 86 87 91 108 134
214 228 230 247 238 224 247 235 251 215 146 209 154 254 290 199 171 164 176 182 175 172 159 162 168 149 137 115 43 55 70 78 68 52 59 69 78 81 77 79 82 105 126 154
228 220 227 233 231 219 231 222 232 184 169 155 231 94 265 130 184 175 185 185 179 176 167 168 181 161 149 139 81 57 97 84 63 61 74 72 84 84 85 102 94 98 111 132
217 229 223 236 232 215 209 190 37 57 91 8 239 169 263 188 201 173 191 184 180 176 173 174 178 162 166 137 148 93 112 95 82 75 79 85 83 89 83 81 83 87 104 106
231 246 256 213 220 171 100 77 290 332 352 228 241 120 247 213 192 180 180 183 181 176 173 176 173 172 183 155 158 132 115 110 105 96 94 92 89 84 86 88 85 87 97 98
210 246 253 213 197 183 178 153 161 208 205 264 26 269 267 286 203 183 183 180 177 176 176 178 179 182 191 177 162 170 156 123 133 121 110 104 108 103 94 99 99 100 99 99
195 234 259 224 221 163 206 161 190 160 198 106 246 291 341 229 109 141 159 170 177 177 179 181 185 182 192 194 185 187 170 149 157 138 140 152 129 109 109 115 113 108 107 103
218 227 231 254 210 330 178 175 109 19 193 247 273 242 228 235 160 149 163 177 179 180 180 184 188 185 185 176 197 191 172 144 145 147 149 150 145 127 112 109 121 117 112 114
199 163 261 138 171 191 98 84 70 113 141 190 247 257 214 197 173 172 181 185 181 183 183 185 188 187 186 186 194 190 170 160 141 141 142 149 151 148 142 124 125 131 125 120
201 181 228 213 286 249 129 155 122 114 301 305 212 266 250 220 162 173 181 186 185 186 184 186 188 189 190 192 196 181 176 172 160 148 145 150 150 157 153 141 132 139 141 130
185 204 132 354 342 356 170 133 88 100 106 237 244 264 303 92 165 185 181 182 185 186 185 187 189 192 195 197 191 192 187 177 172 170 173 164 163 162 167 159 149 144 143 146
187 172 204 210 200 147 188 166 172 169 183 227 241 275 271 154 177 156 185 187 190 187 187 189 193 196 199 200 191 194 190 183 179 180 183 170 160 161 164 167 164 159 155 153
212 202 192 214 178 183 190 190 194 205 219 204 239 238 250 201 198 187 180 191 188 187 190 193 195 199 199 199 194 195 190 185 184 188 185 170 159 158 160 165 168 172 173 171
206 210 115 62 151 151 150 212 214 215 221 229 235 248 234 231 210 157 205 185 189 192 196 197 199 201 201 200 196 197 192 188 192 196 184 173 162 160 159 161 168 174 178 181
164 154 102 152 140 115 230 196 213 228 223 214 225 232 233 232 218 233 198 189 193 196 199 200 202 204 203 201 197 198 197 192 193 191 183 177 168 163 163 160 163 166 167 170
208 122 119 151 131 210 186 164 200 223 219 208 254 253 199 223 212 224 227 204 198 199 202 205 205 207 206 203 200 198 200 197 192 191 184 180 174 169 171 168 164 161 160 160
24 123 104 146 208 55 173 164 155 166 244 203 210 247 198 274 230 229 209 211 214 208 213 214 212 209 206 204 199 198 202 200 196 194 190 185 180 175 174 174 170 165 162 161
50 66 108 142 162 208 187 165 142 104 255 198 192 231 234 120 194 220 201 210 212 217 216 214 213 211 210 206 201 198 203 202 200 197 196 193 188 186 183 178 176 173 169 165
68 52 126 103 105 279 260 142 134 176 228 197 184 198 167 171 223 224 205 228 220 221 220 217 213 214 215 208 203 202 203 206 205 202 200 199 197 195 193 188 187 184 183 185
143 135 147 97 106 226 163 136 170 207 200 189 172 162 166 273 283 308 222 234 221 217 222 217 216 218 215 211 206 205 208 207 208 205 205 205 207 203 199 199 197 199 204 209
166 174 159 168 200 216 184 196 209 221 211 210 205 217 230 251 283 276 269 234 224 228 225 221 220 218 216 213 211 210 213 208 208 208 208 210 213 214 213 207 206 206 213 221
234 131 138 122 211 211 200 207 212 195 207 213 212 217 241 256 259 267 277 266 218 208 209 217 216 215 216 216 214 219 215 211 210 210 211 212 216 218 220 218 217 218 220 225
174 152 158 205 232 146 189 203 212 218 225 228 200 183 198 224 239 262 230 232 204 202 214 221 219 218 221 220 218 220 217 216 212 212 212 213 218 223 223 224 226 228 233 243
147 171 180 201 174 127 146 193 203 207 207 209 212 210 212 189 189 191 203 225 268 235 231 222 219 222 222 224 222 219 218 219 215 213 214 214 218 222 228 230 231 237 242 248